Location: Chircca
(13.7944°S, 72.0608°W)
Time: 05:48:27
(UTC+00:00)

Meteor 1-21 - Pass Details

Date: 14 July 2020
Orbit: 845 x 887 km, 81.2° (Epoch: 14 August)

Event Time Altitude Azimuth Distance (km) Brightness Sun altitude
Rises 09:36:36 0° 341° (NNW) 3,473 7.4 -22.8°
Reaches altitude 10° 09:39:08 10° 336° (NNW) 2,538 6.6 -22.2°
Maximum altitude 09:44:38 46° 263° (W) 1,172 4.5 -21.0°
Drops below altitude 10° 09:50:09 10° 191° (S) 2,539 6.4 -19.7°
Sets 09:52:42 0° 184° (S) 3,476 7.2 -19.1°
